2018-094B (43711 NORAD) Tracking and Keplerian Element Data

This shows tracking and keplerian element data for the satellite.

Feedback or suggestion? Click here.




ElementValue
Catalog43711
Name2018-094B
Epoch Orbit439
Epoch Day352.81366015
Epoch Year2018
RAAN357.3116
Inclination97.4068
Eccentricity0.00136
Argument of Perigee155.4427
Mean Anonmoly258.0404
Mean Motion15.23011858
Decay Rate-3.941E-05
L11 43711U 18094B 18352.81366015 -.00003941 00000-0 -16436-3 0 9999
L22 43711 97.4068 357.3116 0013600 155.4427 258.0404 15.23011858 4399

Live tracking and technical data element details for 2018-094B (NORAD 43711). 2018-094B can be tracked NOW for your location showing map with azimuth and elevation plus other details from your city location.

Track the satellite on the map from your city or location and see movement details for azimuth, elevation, latitude, longitude, range, height, and movement on the map or in text.







IsCatalogInMostPopularTable: catalog: 43711, numindb: 96
Update: records affected: 1



GetName: 43711 2018-094B

Hit Count: updated at: Tue, 23 Jul 2019 02:47:01 GMT